Time,TemperatureF,DewpointF,PressureIn,WindDirection,WindDirectionDegrees,WindSpeedMPH,WindSpeedGustMPH,Humidity,HourlyPrecipIn,Conditions,Clouds,dailyrainin,SoftwareType,DateUTC
2013-02-16 00:00:00,41.2,3.2,30.39,WSW,240,0.0,0.0,20,0.00,,,0.00,meteohub,2013-02-16 08:00:00,
2013-02-16 00:05:00,40.8,5.9,30.39,WSW,243,0.0,0.0,23,0.00,,,0.00,meteohub,2013-02-16 08:05:00,
2013-02-16 00:11:00,40.8,5.9,30.39,WSW,239,0.0,0.0,23,0.00,,,0.00,meteohub,2013-02-16 08:11:00,
2013-02-16 00:16:00,40.6,6.6,30.39,WSW,252,0.0,0.0,24,0.00,,,0.00,meteohub,2013-02-16 08:16:00,
2013-02-16 00:21:00,40.5,9.1,30.39,SW,231,0.0,0.0,27,0.00,,,0.00,meteohub,2013-02-16 08:21:00,
2013-02-16 00:26:00,40.5,9.1,30.38,WSW,248,0.0,0.0,27,0.00,,,0.00,meteohub,2013-02-16 08:26:00,
2013-02-16 00:31:00,40.3,7.2,30.38,WSW,245,0.0,0.0,25,0.00,,,0.00,meteohub,2013-02-16 08:31:00,
2013-02-16 00:36:00,40.3,5.4,30.39,WSW,247,0.0,0.0,23,0.00,,,0.00,meteohub,2013-02-16 08:36:00,
2013-02-16 00:41:00,40.1,8.8,30.38,WSW,240,0.0,0.0,27,0.00,,,0.00,meteohub,2013-02-16 08:41:00,
2013-02-16 00:46:00,40.3,9.0,30.38,WSW,242,0.0,0.0,27,0.00,,,0.00,meteohub,2013-02-16 08:46:00,
2013-02-16 00:51:00,39.9,10.2,30.38,SW,235,0.0,0.0,29,0.00,,,0.00,meteohub,2013-02-16 08:51:00,
2013-02-16 00:56:00,39.7,10.0,30.38,WSW,253,0.0,0.0,29,0.00,,,0.00,meteohub,2013-02-16 08:56:00,
2013-02-16 01:01:00,39.6,9.9,30.38,SW,229,0.0,0.0,29,0.00,,,0.00,meteohub,2013-02-16 09:01:00,
2013-02-16 01:06:00,39.6,9.1,30.38,SW,236,0.0,0.0,28,0.00,,,0.00,meteohub,2013-02-16 09:06:00,
2013-02-16 01:11:00,39.6,9.1,30.38,WSW,240,0.0,0.0,28,0.00,,,0.00,meteohub,2013-02-16 09:11:00,
2013-02-16 01:16:00,39.7,9.3,30.38,WSW,247,0.0,0.0,28,0.00,,,0.00,meteohub,2013-02-16 09:16:00,
2013-02-16 01:21:00,39.7,10.0,30.38,SW,228,0.0,0.0,29,0.00,,,0.00,meteohub,2013-02-16 09:21:00,
2013-02-16 01:26:00,39.7,10.8,30.38,WSW,242,0.0,0.0,30,0.00,,,0.00,meteohub,2013-02-16 09:26:00,
2013-02-16 01:31:00,39.6,9.9,30.38,SW,218,0.0,0.0,29,0.00,,,0.00,meteohub,2013-02-16 09:31:00,
2013-02-16 01:37:00,39.6,9.9,30.38,WSW,248,0.0,0.0,29,0.00,,,0.00,meteohub,2013-02-16 09:37:00,
2013-02-16 01:42:00,39.6,9.1,30.38,SW,236,0.0,0.0,28,0.00,,,0.00,meteohub,2013-02-16 09:42:00,
2013-02-16 01:47:00,39.7,10.0,30.38,SW,236,0.0,0.0,29,0.00,,,0.00,meteohub,2013-02-16 09:47:00,
2013-02-16 01:52:00,39.6,9.1,30.37,SW,226,0.0,0.0,28,0.00,,,0.00,meteohub,2013-02-16 09:52:00,
2013-02-16 01:57:00,39.7,9.3,30.37,WSW,241,0.0,0.0,28,0.00,,,0.00,meteohub,2013-02-16 09:57:00,
2013-02-16 02:02:00,39.6,9.9,30.37,WSW,245,0.0,0.0,29,0.00,,,0.00,meteohub,2013-02-16 10:02:00,
2013-02-16 02:07:00,39.7,10.0,30.37,WSW,248,0.0,0.0,29,0.00,,,0.00,meteohub,2013-02-16 10:07:00,
2013-02-16 02:12:00,39.7,9.3,30.37,WSW,246,0.0,0.0,28,0.00,,,0.00,meteohub,2013-02-16 10:12:00,
2013-02-16 02:17:00,39.7,10.0,30.36,WSW,246,0.0,0.0,29,0.00,,,0.00,meteohub,2013-02-16 10:17:00,
2013-02-16 02:22:00,39.6,9.9,30.36,WSW,245,0.0,0.0,29,0.00,,,0.00,meteohub,2013-02-16 10:22:00,
2013-02-16 02:27:00,39.7,10.0,30.36,WSW,245,0.0,0.0,29,0.00,,,0.00,meteohub,2013-02-16 10:27:00,
2013-02-16 02:32:00,39.7,8.4,30.36,WSW,247,0.0,0.0,27,0.00,,,0.00,meteohub,2013-02-16 10:32:00,
2013-02-16 02:37:00,40.1,6.3,30.35,WSW,243,0.0,0.0,24,0.00,,,0.00,meteohub,2013-02-16 10:37:00,
2013-02-16 02:42:00,40.3,6.3,30.35,WSW,245,0.0,0.0,24,0.00,,,0.00,meteohub,2013-02-16 10:42:00,
2013-02-16 02:47:00,40.5,6.4,30.35,WSW,245,0.0,0.0,24,0.00,,,0.00,meteohub,2013-02-16 10:47:00,
2013-02-16 02:52:00,40.5,7.3,30.35,WSW,245,0.0,0.0,25,0.00,,,0.00,meteohub,2013-02-16 10:52:00,
2013-02-16 02:57:00,40.5,7.3,30.35,WSW,245,0.0,0.0,25,0.00,,,0.00,meteohub,2013-02-16 10:57:00,
2013-02-16 03:02:00,40.1,6.3,30.35,WSW,243,0.0,0.0,24,0.00,,,0.00,meteohub,2013-02-16 11:02:00,
2013-02-16 03:07:00,40.1,6.3,30.35,WSW,248,0.0,0.0,24,0.00,,,0.00,meteohub,2013-02-16 11:07:00,
2013-02-16 03:12:00,40.3,7.2,30.34,WSW,245,0.0,0.0,25,0.00,,,0.00,meteohub,2013-02-16 11:12:00,
2013-02-16 03:17:00,40.3,7.2,30.34,WSW,246,0.0,0.0,25,0.00,,,0.00,meteohub,2013-02-16 11:17:00,
2013-02-16 03:22:00,40.3,6.3,30.34,WSW,245,0.0,0.0,24,0.00,,,0.00,meteohub,2013-02-16 11:22:00,
2013-02-16 03:27:00,40.3,6.3,30.34,WSW,246,0.0,0.0,24,0.00,,,0.00,meteohub,2013-02-16 11:27:00,
2013-02-16 03:32:00,40.3,6.3,30.34,WSW,242,0.0,0.0,24,0.00,,,0.00,meteohub,2013-02-16 11:32:00,
2013-02-16 03:37:00,40.5,5.5,30.34,WSW,252,0.0,0.0,23,0.00,,,0.00,meteohub,2013-02-16 11:37:00,
2013-02-16 03:42:00,40.5,5.5,30.34,SW,236,0.0,0.0,23,0.00,,,0.00,meteohub,2013-02-16 11:42:00,
2013-02-16 03:47:00,40.6,4.8,30.34,WSW,252,0.0,0.0,22,0.00,,,0.00,meteohub,2013-02-16 11:47:00,
2013-02-16 03:52:00,40.8,3.9,30.33,WSW,245,0.0,0.0,21,0.00,,,0.00,meteohub,2013-02-16 11:52:00,
2013-02-16 03:57:00,41.2,1.9,30.33,WSW,243,0.0,0.0,19,0.00,,,0.00,meteohub,2013-02-16 11:57:00,
2013-02-16 04:02:00,41.5,1.2,30.33,WSW,246,0.0,0.0,18,0.00,,,0.00,meteohub,2013-02-16 12:02:00,
2013-02-16 04:07:00,41.5,2.3,30.34,WSW,238,0.0,0.0,19,0.00,,,0.00,meteohub,2013-02-16 12:07:00,
2013-02-16 04:12:00,41.5,3.4,30.34,WSW,247,0.0,0.0,20,0.00,,,0.00,meteohub,2013-02-16 12:12:00,
2013-02-16 04:17:00,41.4,2.1,30.34,WSW,241,0.0,0.0,19,0.00,,,0.00,meteohub,2013-02-16 12:17:00,
2013-02-16 04:22:00,41.5,0.0,30.34,WSW,240,0.0,0.0,17,0.00,,,0.00,meteohub,2013-02-16 12:22:00,
2013-02-16 04:27:00,41.5,-1.3,30.34,WSW,241,0.0,0.0,16,0.00,,,0.00,meteohub,2013-02-16 12:27:00,
2013-02-16 04:32:00,41.7,0.1,30.34,WSW,243,0.0,0.0,17,0.00,,,0.00,meteohub,2013-02-16 12:32:00,
2013-02-16 04:37:00,41.7,0.1,30.33,WSW,250,0.0,0.0,17,0.00,,,0.00,meteohub,2013-02-16 12:37:00,
2013-02-16 04:42:00,41.7,-1.1,30.33,WSW,243,0.0,0.0,16,0.00,,,0.00,meteohub,2013-02-16 12:42:00,
2013-02-16 04:47:00,41.7,-1.1,30.33,WSW,255,0.0,0.0,16,0.00,,,0.00,meteohub,2013-02-16 12:47:00,
2013-02-16 04:52:00,41.9,-1.1,30.34,WSW,253,0.0,0.0,16,0.00,,,0.00,meteohub,2013-02-16 12:52:00,
2013-02-16 04:57:00,41.9,-2.4,30.33,WSW,248,0.0,0.0,15,0.00,,,0.00,meteohub,2013-02-16 12:57:00,
2013-02-16 05:02:00,41.9,-2.4,30.33,WSW,248,0.0,0.0,15,0.00,,,0.00,meteohub,2013-02-16 13:02:00,
2013-02-16 05:07:00,42.1,-2.2,30.33,WSW,248,0.0,0.0,15,0.00,,,0.00,meteohub,2013-02-16 13:07:00,
2013-02-16 05:12:00,41.9,-2.4,30.33,WSW,247,0.0,0.0,15,0.00,,,0.00,meteohub,2013-02-16 13:12:00,
2013-02-16 05:17:00,41.9,-2.4,30.33,WSW,247,0.0,0.0,15,0.00,,,0.00,meteohub,2013-02-16 13:17:00,
2013-02-16 05:22:00,41.7,-2.6,30.33,WSW,238,0.0,0.0,15,0.00,,,0.00,meteohub,2013-02-16 13:22:00,
2013-02-16 05:27:00,41.7,-2.6,30.33,WSW,238,0.0,0.0,15,0.00,,,0.00,meteohub,2013-02-16 13:27:00,
2013-02-16 05:32:00,41.5,-2.7,30.33,WSW,238,0.0,0.0,15,0.00,,,0.00,meteohub,2013-02-16 13:32:00,
2013-02-16 05:37:00,41.5,-2.7,30.33,WSW,238,0.0,0.0,15,0.00,,,0.00,meteohub,2013-02-16 13:37:00,
2013-02-16 05:42:00,41.4,-1.5,30.33,WSW,238,0.0,0.0,16,0.00,,,0.00,meteohub,2013-02-16 13:42:00,
2013-02-16 05:47:00,41.2,-1.7,30.33,WSW,238,0.0,0.0,16,0.00,,,0.00,meteohub,2013-02-16 13:47:00,
2013-02-16 05:52:00,41.2,-1.7,30.33,WSW,238,0.0,0.0,16,0.00,,,0.00,meteohub,2013-02-16 13:52:00,
2013-02-16 05:57:00,41.2,-0.4,30.33,WSW,238,0.0,0.0,17,0.00,,,0.00,meteohub,2013-02-16 13:57:00,
2013-02-16 06:02:00,41.2,-1.7,30.33,WSW,246,0.0,0.0,16,0.00,,,0.00,meteohub,2013-02-16 14:02:00,
2013-02-16 06:07:00,41.2,-0.4,30.33,WSW,247,0.0,0.0,17,0.00,,,0.00,meteohub,2013-02-16 14:07:00,
2013-02-16 06:12:00,41.4,-1.5,30.33,WSW,246,0.0,0.0,16,0.00,,,0.00,meteohub,2013-02-16 14:12:00,
2013-02-16 06:17:00,41.5,-2.7,30.33,WSW,245,0.0,0.0,15,0.00,,,0.00,meteohub,2013-02-16 14:17:00,
2013-02-16 06:22:00,41.5,-1.3,30.33,WSW,245,0.0,0.0,16,0.00,,,0.00,meteohub,2013-02-16 14:22:00,
2013-02-16 06:27:00,41.7,-2.6,30.33,WSW,245,0.0,0.0,15,0.00,,,0.00,meteohub,2013-02-16 14:27:00,
2013-02-16 06:32:00,42.1,-2.2,30.33,WSW,245,0.0,0.0,15,0.00,,,0.00,meteohub,2013-02-16 14:32:00,
2013-02-16 06:37:00,42.4,-3.5,30.33,WSW,250,0.0,0.0,14,0.00,,,0.00,meteohub,2013-02-16 14:37:00,
2013-02-16 06:42:00,42.8,-3.1,30.33,WSW,248,0.0,0.0,14,0.00,,,0.00,meteohub,2013-02-16 14:42:00,
2013-02-16 06:47:00,43.0,-2.9,30.33,WSW,250,0.0,0.0,14,0.00,,,0.00,meteohub,2013-02-16 14:47:00,
2013-02-16 06:52:00,43.2,-2.9,30.33,WSW,245,0.0,0.0,14,0.00,,,0.00,meteohub,2013-02-16 14:52:00,
2013-02-16 06:57:00,43.7,-5.6,30.33,WSW,243,0.0,0.0,12,0.00,,,0.00,meteohub,2013-02-16 14:57:00,
2013-02-16 07:02:00,44.2,-3.5,30.33,WSW,242,0.0,0.0,13,0.00,,,0.00,meteohub,2013-02-16 15:02:00,
2013-02-16 07:07:00,45.1,-6.3,30.34,WSW,242,0.0,0.0,11,0.00,,,0.00,meteohub,2013-02-16 15:07:00,
2013-02-16 07:12:00,45.3,-4.4,30.34,WSW,242,0.0,0.0,12,0.00,,,0.00,meteohub,2013-02-16 15:12:00,
2013-02-16 07:17:00,45.7,-0.8,30.34,WSW,241,0.0,0.0,14,0.00,,,0.00,meteohub,2013-02-16 15:17:00,
2013-02-16 07:22:00,46.0,-0.6,30.34,WSW,242,0.0,0.0,14,0.00,,,0.00,meteohub,2013-02-16 15:22:00,
2013-02-16 07:27:00,46.2,-0.4,30.34,SW,228,0.0,0.0,14,0.00,,,0.00,meteohub,2013-02-16 15:27:00,
2013-02-16 07:32:00,46.8,4.3,30.34,SW,228,0.0,0.0,17,0.00,,,0.00,meteohub,2013-02-16 15:32:00,
2013-02-16 07:37:00,46.9,3.0,30.34,SW,231,0.0,0.0,16,0.00,,,0.00,meteohub,2013-02-16 15:37:00,
2013-02-16 07:42:00,47.5,3.6,30.34,ESE,111,0.0,0.0,16,0.00,,,0.00,meteohub,2013-02-16 15:42:00,
2013-02-16 07:47:00,48.0,2.5,30.33,SE,146,0.0,0.0,15,0.00,,,0.00,meteohub,2013-02-16 15:47:00,
2013-02-16 07:52:00,49.3,2.1,30.34,SE,146,0.0,0.0,14,0.00,,,0.00,meteohub,2013-02-16 15:52:00,
2013-02-16 07:57:00,50.5,-0.2,30.33,SE,145,0.0,0.0,12,0.00,,,0.00,meteohub,2013-02-16 15:57:00,
2013-02-16 08:02:00,52.0,10.9,30.33,SE,142,0.0,0.0,19,0.00,,,0.00,meteohub,2013-02-16 16:02:00,
2013-02-16 08:07:00,53.8,7.2,30.34,SE,142,0.0,0.0,15,0.00,,,0.00,meteohub,2013-02-16 16:07:00,
2013-02-16 08:12:00,54.1,15.1,30.34,SE,143,0.0,0.0,21,0.00,,,0.00,meteohub,2013-02-16 16:12:00,
2013-02-16 08:17:00,54.5,15.3,30.33,SE,141,0.0,0.0,21,0.00,,,0.00,meteohub,2013-02-16 16:17:00,
2013-02-16 08:22:00,55.2,18.1,30.33,SE,141,0.0,0.0,23,0.00,,,0.00,meteohub,2013-02-16 16:22:00,
2013-02-16 08:27:00,55.0,18.0,30.33,SE,141,0.0,0.0,23,0.00,,,0.00,meteohub,2013-02-16 16:27:00,
2013-02-16 08:32:00,55.6,20.3,30.33,SE,141,0.0,0.0,25,0.00,,,0.00,meteohub,2013-02-16 16:32:00,
2013-02-16 08:37:00,55.8,20.5,30.33,SE,141,0.0,0.0,25,0.00,,,0.00,meteohub,2013-02-16 16:37:00,
2013-02-16 08:42:00,56.5,21.9,30.33,SE,143,0.0,0.0,26,0.00,,,0.00,meteohub,2013-02-16 16:42:00,
2013-02-16 08:47:00,56.7,23.9,30.32,SE,134,0.0,0.0,28,0.00,,,0.00,meteohub,2013-02-16 16:47:00,
2013-02-16 08:52:00,56.1,20.8,30.32,SE,134,0.0,0.0,25,0.00,,,0.00,meteohub,2013-02-16 16:52:00,
2013-02-16 08:57:00,56.8,24.1,30.32,ESE,108,0.0,0.0,28,0.00,,,0.00,meteohub,2013-02-16 16:57:00,
2013-02-16 09:02:00,57.9,24.1,30.32,ESE,108,0.0,0.0,27,0.00,,,0.00,meteohub,2013-02-16 17:02:00,
2013-02-16 09:07:00,58.5,23.7,30.32,ESE,108,0.0,0.0,26,0.00,,,0.00,meteohub,2013-02-16 17:07:00,
2013-02-16 09:12:00,57.7,22.1,30.32,ENE,77,0.0,0.0,25,0.00,,,0.00,meteohub,2013-02-16 17:12:00,
2013-02-16 09:17:00,57.0,24.3,30.32,ENE,73,0.0,0.0,28,0.00,,,0.00,meteohub,2013-02-16 17:17:00,
2013-02-16 09:22:00,55.9,20.7,30.32,ENE,73,0.0,0.0,25,0.00,,,0.00,meteohub,2013-02-16 17:22:00,
2013-02-16 09:27:00,56.5,21.0,30.32,ENE,74,0.0,0.0,25,0.00,,,0.00,meteohub,2013-02-16 17:27:00,
2013-02-16 09:32:00,57.2,22.6,30.32,East,96,0.0,0.0,26,0.00,,,0.00,meteohub,2013-02-16 17:32:00,
2013-02-16 09:37:00,57.7,26.4,30.32,East,96,0.0,0.0,30,0.00,,,0.00,meteohub,2013-02-16 17:37:00,
2013-02-16 09:42:00,58.3,24.4,30.32,SE,141,0.0,0.0,27,0.00,,,0.00,meteohub,2013-02-16 17:42:00,
2013-02-16 09:47:00,58.5,21.7,30.31,East,100,0.0,0.0,24,0.00,,,0.00,meteohub,2013-02-16 17:47:00,
2013-02-16 09:52:00,58.5,23.7,30.31,ESE,104,0.0,0.0,26,0.00,,,0.00,meteohub,2013-02-16 17:52:00,
2013-02-16 09:57:00,58.8,24.1,30.31,East,94,0.0,0.0,26,0.00,,,0.00,meteohub,2013-02-16 17:57:00,
2013-02-16 10:02:00,59.2,20.3,30.31,East,84,0.0,0.0,22,0.00,,,0.00,meteohub,2013-02-16 18:02:00,
2013-02-16 10:07:00,60.1,22.1,30.31,ENE,57,0.0,0.0,23,0.00,,,0.00,meteohub,2013-02-16 18:07:00,
2013-02-16 10:12:00,60.6,16.9,30.31,ESE,120,0.0,0.0,18,0.00,,,0.00,meteohub,2013-02-16 18:12:00,
2013-02-16 10:17:00,60.6,15.6,30.31,South,179,0.0,0.0,17,0.00,,,0.00,meteohub,2013-02-16 18:17:00,
2013-02-16 10:22:00,60.4,14.0,30.31,SSE,162,0.0,3.0,16,0.00,,,0.00,meteohub,2013-02-16 18:22:00,
2013-02-16 10:27:00,60.6,14.2,30.30,SSE,154,0.0,3.0,16,0.00,,,0.00,meteohub,2013-02-16 18:27:00,
2013-02-16 10:32:00,60.1,15.1,30.31,ESE,121,1.0,2.0,17,0.00,,,0.00,meteohub,2013-02-16 18:32:00,
2013-02-16 10:37:00,59.4,15.8,30.31,SE,127,0.0,2.0,18,0.00,,,0.00,meteohub,2013-02-16 18:37:00,
2013-02-16 10:42:00,58.6,21.0,30.30,SE,127,0.0,2.0,23,0.00,,,0.00,meteohub,2013-02-16 18:42:00,
2013-02-16 10:47:00,59.2,23.4,30.30,East,92,0.0,2.0,25,0.00,,,0.00,meteohub,2013-02-16 18:47:00,
2013-02-16 10:52:00,59.5,22.6,30.30,ESE,120,0.0,1.0,24,0.00,,,0.00,meteohub,2013-02-16 18:52:00,
2013-02-16 10:57:00,59.9,19.9,30.30,SE,124,0.0,0.0,21,0.00,,,0.00,meteohub,2013-02-16 18:57:00,
2013-02-16 11:02:00,59.2,16.9,30.30,West,276,1.0,0.0,19,0.00,,,0.00,meteohub,2013-02-16 19:02:00,
2013-02-16 11:07:00,58.3,16.2,30.30,ESE,102,0.0,2.0,19,0.00,,,0.00,meteohub,2013-02-16 19:07:00,
2013-02-16 11:12:00,57.9,19.2,30.30,WNW,283,2.0,2.0,22,0.00,,,0.00,meteohub,2013-02-16 19:12:00,
2013-02-16 11:17:00,57.2,18.7,30.30,NW,309,2.0,2.0,22,0.00,,,0.00,meteohub,2013-02-16 19:17:00,
2013-02-16 11:22:00,56.5,19.0,30.30,NE,34,1.0,3.0,23,0.00,,,0.00,meteohub,2013-02-16 19:22:00,
2013-02-16 11:27:00,56.3,16.9,30.29,NE,36,3.0,3.0,21,0.00,,,0.00,meteohub,2013-02-16 19:27:00,
2013-02-16 11:32:00,55.9,14.2,30.29,NW,311,2.0,5.0,19,0.00,,,0.00,meteohub,2013-02-16 19:32:00,
2013-02-16 11:37:00,55.8,16.3,30.29,North,6,1.0,5.0,21,0.00,,,0.00,meteohub,2013-02-16 19:37:00,
2013-02-16 11:42:00,56.1,17.8,30.28,NNW,333,1.0,5.0,22,0.00,,,0.00,meteohub,2013-02-16 19:42:00,
2013-02-16 11:47:00,55.4,18.1,30.28,NNE,25,2.0,4.0,23,0.00,,,0.00,meteohub,2013-02-16 19:47:00,
2013-02-16 11:52:00,54.7,16.5,30.28,NNE,18,1.0,4.0,22,0.00,,,0.00,meteohub,2013-02-16 19:52:00,
2013-02-16 11:57:00,54.7,18.5,30.28,WNW,282,0.0,4.0,24,0.00,,,0.00,meteohub,2013-02-16 19:57:00,
2013-02-16 12:02:00,55.0,15.8,30.27,North,6,0.0,3.0,21,0.00,,,0.00,meteohub,2013-02-16 20:02:00,
2013-02-16 12:07:00,55.8,19.6,30.27,NE,44,0.0,3.0,24,0.00,,,0.00,meteohub,2013-02-16 20:07:00,
2013-02-16 12:12:00,57.0,20.5,30.27,NW,324,0.0,0.0,24,0.00,,,0.00,meteohub,2013-02-16 20:12:00,
2013-02-16 12:17:00,57.0,19.6,30.26,NNW,329,0.0,3.0,23,0.00,,,0.00,meteohub,2013-02-16 20:17:00,
2013-02-16 12:22:00,56.5,18.1,30.26,NNE,25,1.0,3.0,22,0.00,,,0.00,meteohub,2013-02-16 20:22:00,
2013-02-16 12:27:00,55.0,20.8,30.26,ENE,61,1.0,3.0,26,0.00,,,0.00,meteohub,2013-02-16 20:27:00,
2013-02-16 12:33:00,55.0,19.8,30.25,ENE,62,0.0,3.0,25,0.00,,,0.00,meteohub,2013-02-16 20:33:00,
2013-02-16 12:38:00,55.9,22.5,30.25,NE,49,0.0,3.0,27,0.00,,,0.00,meteohub,2013-02-16 20:38:00,
2013-02-16 12:43:00,56.1,20.8,30.24,ENE,77,0.0,3.0,25,0.00,,,0.00,meteohub,2013-02-16 20:43:00,
2013-02-16 12:48:00,56.1,19.8,30.24,ESE,114,2.0,4.0,24,0.00,,,0.00,meteohub,2013-02-16 20:48:00,
2013-02-16 12:53:00,56.8,20.5,30.24,ENE,60,2.0,5.0,24,0.00,,,0.00,meteohub,2013-02-16 20:53:00,
2013-02-16 12:58:00,56.7,21.2,30.23,East,87,2.0,6.0,25,0.00,,,0.00,meteohub,2013-02-16 20:58:00,
2013-02-16 13:03:00,57.0,19.6,30.23,NNE,15,3.0,6.0,23,0.00,,,0.00,meteohub,2013-02-16 21:03:00,
2013-02-16 13:08:00,57.9,22.3,30.23,ENE,63,0.0,6.0,25,0.00,,,0.00,meteohub,2013-02-16 21:08:00,
2013-02-16 13:13:00,58.3,21.6,30.22,ESE,108,3.0,4.0,24,0.00,,,0.00,meteohub,2013-02-16 21:13:00,
2013-02-16 13:18:00,57.6,19.0,30.22,ENE,71,1.0,5.0,22,0.00,,,0.00,meteohub,2013-02-16 21:18:00,
2013-02-16 13:23:00,57.4,17.8,30.22,ESE,103,0.0,5.0,21,0.00,,,0.00,meteohub,2013-02-16 21:23:00,
2013-02-16 13:28:00,57.9,20.3,30.21,WNW,288,0.0,5.0,23,0.00,,,0.00,meteohub,2013-02-16 21:28:00,
2013-02-16 13:33:00,57.7,18.1,30.21,WNW,300,4.0,4.0,21,0.00,,,0.00,meteohub,2013-02-16 21:33:00,
2013-02-16 13:38:00,57.6,19.9,30.20,West,267,0.0,4.0,23,0.00,,,0.00,meteohub,2013-02-16 21:38:00,
2013-02-16 13:43:00,58.6,17.6,30.20,West,280,0.0,4.0,20,0.00,,,0.00,meteohub,2013-02-16 21:43:00,
2013-02-16 13:49:00,59.2,16.9,30.20,NW,313,1.0,4.0,19,0.00,,,0.00,meteohub,2013-02-16 21:49:00,
2013-02-16 13:54:00,58.6,16.5,30.19,WNW,297,1.0,5.0,19,0.00,,,0.00,meteohub,2013-02-16 21:54:00,
2013-02-16 13:59:00,58.6,7.9,30.19,ENE,62,4.0,5.0,13,0.00,,,0.00,meteohub,2013-02-16 21:59:00,
2013-02-16 14:04:00,58.5,16.3,30.19,East,87,2.0,5.0,19,0.00,,,0.00,meteohub,2013-02-16 22:04:00,
2013-02-16 14:09:00,58.3,14.9,30.19,East,79,2.0,5.0,18,0.00,,,0.00,meteohub,2013-02-16 22:09:00,
2013-02-16 14:14:00,58.3,13.6,30.19,ESE,108,1.0,5.0,17,0.00,,,0.00,meteohub,2013-02-16 22:14:00,
2013-02-16 14:19:00,57.7,16.9,30.19,NW,323,1.0,4.0,20,0.00,,,0.00,meteohub,2013-02-16 22:19:00,
2013-02-16 14:24:00,57.6,15.6,30.18,SSW,201,1.0,4.0,19,0.00,,,0.00,meteohub,2013-02-16 22:24:00,
2013-02-16 14:29:00,57.9,17.1,30.18,East,101,0.0,4.0,20,0.00,,,0.00,meteohub,2013-02-16 22:29:00,
2013-02-16 14:34:00,58.3,16.2,30.18,SE,141,1.0,5.0,19,0.00,,,0.00,meteohub,2013-02-16 22:34:00,
2013-02-16 14:39:00,58.5,16.3,30.18,WNW,290,0.0,5.0,19,0.00,,,0.00,meteohub,2013-02-16 22:39:00,
2013-02-16 14:44:00,57.9,13.3,30.17,SE,132,4.0,5.0,17,0.00,,,0.00,meteohub,2013-02-16 22:44:00,
2013-02-16 14:49:00,57.4,15.4,30.17,SSE,155,1.0,6.0,19,0.00,,,0.00,meteohub,2013-02-16 22:49:00,
2013-02-16 14:54:00,57.4,16.7,30.17,SSW,192,0.0,6.0,20,0.00,,,0.00,meteohub,2013-02-16 22:54:00,
2013-02-16 14:59:00,57.0,14.0,30.17,ESE,113,1.0,6.0,18,0.00,,,0.00,meteohub,2013-02-16 22:59:00,
2013-02-16 15:04:00,57.0,14.0,30.17,ESE,117,3.0,5.0,18,0.00,,,0.00,meteohub,2013-02-16 23:04:00,
2013-02-16 15:10:00,56.7,12.4,30.17,ESE,117,0.0,5.0,17,0.00,,,0.00,meteohub,2013-02-16 23:10:00,
2013-02-16 15:15:00,56.5,13.5,30.17,WNW,296,1.0,5.0,18,0.00,,,0.00,meteohub,2013-02-16 23:15:00,
2013-02-16 15:20:00,56.5,13.5,30.17,East,89,0.0,4.0,18,0.00,,,0.00,meteohub,2013-02-16 23:20:00,
2013-02-16 15:25:00,56.1,13.1,30.17,SE,129,1.0,4.0,18,0.00,,,0.00,meteohub,2013-02-16 23:25:00,
2013-02-16 15:30:00,55.8,16.3,30.17,East,82,7.0,7.0,21,0.00,,,0.00,meteohub,2013-02-16 23:30:00,
2013-02-16 15:35:00,55.2,16.0,30.17,WSW,246,0.0,4.0,21,0.00,,,0.00,meteohub,2013-02-16 23:35:00,
2013-02-16 15:40:00,54.9,15.6,30.16,West,266,2.0,8.0,21,0.00,,,0.00,meteohub,2013-02-16 23:40:00,
2013-02-16 15:45:00,54.1,16.2,30.16,ENE,70,0.0,8.0,22,0.00,,,0.00,meteohub,2013-02-16 23:45:00,
2013-02-16 15:50:00,54.1,17.1,30.17,ESE,106,0.0,4.0,23,0.00,,,0.00,meteohub,2013-02-16 23:50:00,
2013-02-16 15:55:00,53.8,11.3,30.16,SSW,195,0.0,4.0,18,0.00,,,0.00,meteohub,2013-02-16 23:55:00,
2013-02-16 16:00:00,53.6,13.5,30.16,SSE,153,0.0,3.0,20,0.00,,,0.00,meteohub,2013-02-17 00:00:00,
2013-02-16 16:05:00,53.2,14.4,30.16,SW,228,0.0,3.0,21,0.00,,,0.00,meteohub,2013-02-17 00:05:00,
2013-02-16 16:10:00,52.9,14.0,30.16,SW,231,0.0,3.0,21,0.00,,,0.00,meteohub,2013-02-17 00:10:00,
2013-02-16 16:15:00,52.5,14.7,30.16,ESE,121,1.0,3.0,22,0.00,,,0.00,meteohub,2013-02-17 00:15:00,
2013-02-16 16:20:00,52.3,10.0,30.16,West,273,1.0,3.0,18,0.00,,,0.00,meteohub,2013-02-17 00:20:00,
2013-02-16 16:25:00,52.2,13.5,30.16,NW,304,0.0,4.0,21,0.00,,,0.00,meteohub,2013-02-17 00:25:00,
2013-02-16 16:30:00,51.6,12.9,30.15,WSW,248,0.0,4.0,21,0.00,,,0.00,meteohub,2013-02-17 00:30:00,
2013-02-16 16:35:00,51.3,9.1,30.15,SE,136,1.0,3.0,18,0.00,,,0.00,meteohub,2013-02-17 00:35:00,
2013-02-16 16:41:00,51.3,10.4,30.15,South,183,0.0,3.0,19,0.00,,,0.00,meteohub,2013-02-17 00:41:00,
2013-02-16 16:46:00,51.1,10.2,30.15,SE,138,0.0,3.0,19,0.00,,,0.00,meteohub,2013-02-17 00:46:00,
2013-02-16 16:51:00,50.9,10.0,30.15,SE,142,0.0,2.0,19,0.00,,,0.00,meteohub,2013-02-17 00:51:00,
2013-02-16 16:56:00,50.5,14.2,30.15,South,187,0.0,0.0,23,0.00,,,0.00,meteohub,2013-02-17 00:56:00,
2013-02-16 17:01:00,50.2,13.8,30.15,SSW,212,0.0,0.0,23,0.00,,,0.00,meteohub,2013-02-17 01:01:00,
2013-02-16 17:06:00,49.8,12.6,30.15,SSE,156,0.0,0.0,22,0.00,,,0.00,meteohub,2013-02-17 01:06:00,
2013-02-16 17:11:00,49.8,14.5,30.15,SSE,153,0.0,0.0,24,0.00,,,0.00,meteohub,2013-02-17 01:11:00,
2013-02-16 17:16:00,49.3,14.0,30.14,SSE,163,0.0,0.0,24,0.00,,,0.00,meteohub,2013-02-17 01:16:00,
2013-02-16 17:21:00,48.9,14.5,30.15,SSW,208,0.0,0.0,25,0.00,,,0.00,meteohub,2013-02-17 01:21:00,
2013-02-16 17:26:00,48.4,13.3,30.14,SSW,208,0.0,0.0,24,0.00,,,0.00,meteohub,2013-02-17 01:26:00,
2013-02-16 17:31:00,48.2,14.9,30.15,SSW,210,0.0,0.0,26,0.00,,,0.00,meteohub,2013-02-17 01:31:00,
2013-02-16 17:36:00,47.7,13.5,30.15,SSW,210,0.0,0.0,25,0.00,,,0.00,meteohub,2013-02-17 01:36:00,
2013-02-16 17:41:00,47.7,12.6,30.15,SSE,165,0.0,0.0,24,0.00,,,0.00,meteohub,2013-02-17 01:41:00,
2013-02-16 17:46:00,47.8,10.8,30.15,SSW,211,0.0,1.0,22,0.00,,,0.00,meteohub,2013-02-17 01:46:00,
2013-02-16 17:51:00,47.7,10.6,30.15,SSW,212,1.0,1.0,22,0.00,,,0.00,meteohub,2013-02-17 01:51:00,
2013-02-16 17:57:00,47.5,10.6,30.15,SSW,212,1.0,1.0,22,0.00,,,0.00,meteohub,2013-02-17 01:57:00,
2013-02-16 18:02:00,47.1,10.2,30.15,SW,217,1.0,1.0,22,0.00,,,0.00,meteohub,2013-02-17 02:02:00,
2013-02-16 18:07:00,46.9,10.0,30.15,SW,222,1.0,1.0,22,0.00,,,0.00,meteohub,2013-02-17 02:07:00,
2013-02-16 18:12:00,46.9,9.0,30.15,SW,225,0.0,1.0,21,0.00,,,0.00,meteohub,2013-02-17 02:12:00,
2013-02-16 18:17:00,46.9,7.9,30.15,SW,222,0.0,2.0,20,0.00,,,0.00,meteohub,2013-02-17 02:17:00,
2013-02-16 18:22:00,46.9,7.9,30.15,SW,222,0.0,2.0,20,0.00,,,0.00,meteohub,2013-02-17 02:22:00,
2013-02-16 18:27:00,46.8,7.7,30.15,SW,221,0.0,0.0,20,0.00,,,0.00,meteohub,2013-02-17 02:27:00,
2013-02-16 18:32:00,46.8,7.7,30.15,SW,222,0.0,0.0,20,0.00,,,0.00,meteohub,2013-02-17 02:32:00,
2013-02-16 18:37:00,46.8,7.7,30.15,SW,222,0.0,0.0,20,0.00,,,0.00,meteohub,2013-02-17 02:37:00,
2013-02-16 18:42:00,46.8,7.7,30.15,SW,222,0.0,0.0,20,0.00,,,0.00,meteohub,2013-02-17 02:42:00,
2013-02-16 18:47:00,46.9,7.9,30.15,SW,222,0.0,0.0,20,0.00,,,0.00,meteohub,2013-02-17 02:47:00,
2013-02-16 18:52:00,46.8,8.8,30.14,WSW,238,0.0,0.0,21,0.00,,,0.00,meteohub,2013-02-17 02:52:00,
2013-02-16 18:57:00,46.6,7.7,30.14,SW,214,0.0,0.0,20,0.00,,,0.00,meteohub,2013-02-17 02:57:00,
2013-02-16 19:02:00,46.6,8.8,30.15,South,174,0.0,0.0,21,0.00,,,0.00,meteohub,2013-02-17 03:02:00,
2013-02-16 19:07:00,46.6,9.7,30.15,WSW,248,0.0,0.0,22,0.00,,,0.00,meteohub,2013-02-17 03:07:00,
2013-02-16 19:12:00,46.4,11.5,30.15,SW,232,0.0,0.0,24,0.00,,,0.00,meteohub,2013-02-17 03:12:00,
2013-02-16 19:17:00,46.0,11.3,30.15,SW,214,0.0,0.0,24,0.00,,,0.00,meteohub,2013-02-17 03:17:00,
2013-02-16 19:22:00,45.7,12.7,30.14,SW,214,0.0,0.0,26,0.00,,,0.00,meteohub,2013-02-17 03:22:00,
2013-02-16 19:27:00,45.5,12.6,30.14,SSW,207,0.0,0.0,26,0.00,,,0.00,meteohub,2013-02-17 03:27:00,
2013-02-16 19:32:00,45.5,13.5,30.14,SSW,205,0.0,0.0,27,0.00,,,0.00,meteohub,2013-02-17 03:32:00,
2013-02-16 19:37:00,45.3,14.2,30.14,SSW,205,0.0,0.0,28,0.00,,,0.00,meteohub,2013-02-17 03:37:00,
2013-02-16 19:42:00,45.1,13.1,30.14,SSW,209,0.0,0.0,27,0.00,,,0.00,meteohub,2013-02-17 03:42:00,
2013-02-16 19:47:00,45.1,14.0,30.14,SW,222,0.0,0.0,28,0.00,,,0.00,meteohub,2013-02-17 03:47:00,
2013-02-16 19:52:00,45.1,13.1,30.13,SW,219,0.0,0.0,27,0.00,,,0.00,meteohub,2013-02-17 03:52:00,
2013-02-16 19:57:00,45.1,11.5,30.13,SSW,210,0.0,0.0,25,0.00,,,0.00,meteohub,2013-02-17 03:57:00,
2013-02-16 20:02:00,45.5,11.7,30.13,SSW,212,0.0,0.0,25,0.00,,,0.00,meteohub,2013-02-17 04:02:00,
2013-02-16 20:07:00,45.5,11.7,30.13,SSW,212,0.0,0.0,25,0.00,,,0.00,meteohub,2013-02-17 04:07:00,
2013-02-16 20:12:00,45.0,14.5,30.13,West,266,0.0,0.0,29,0.00,,,0.00,meteohub,2013-02-17 04:12:00,
2013-02-16 20:18:00,44.1,14.5,30.13,SW,229,0.0,0.0,30,0.00,,,0.00,meteohub,2013-02-17 04:18:00,
2013-02-16 20:23:00,43.5,14.2,30.13,SW,225,0.0,0.0,30,0.00,,,0.00,meteohub,2013-02-17 04:23:00,
2013-02-16 20:28:00,43.3,13.3,30.13,SW,224,0.0,0.0,29,0.00,,,0.00,meteohub,2013-02-17 04:28:00,
2013-02-16 20:33:00,43.3,12.4,30.13,SW,224,0.0,0.0,28,0.00,,,0.00,meteohub,2013-02-17 04:33:00,
2013-02-16 20:38:00,43.3,12.4,30.14,SW,228,0.0,0.0,28,0.00,,,0.00,meteohub,2013-02-17 04:38:00,
2013-02-16 20:43:00,43.5,12.6,30.14,SW,233,0.0,0.0,28,0.00,,,0.00,meteohub,2013-02-17 04:43:00,
2013-02-16 20:48:00,43.3,12.4,30.14,SW,232,0.0,0.0,28,0.00,,,0.00,meteohub,2013-02-17 04:48:00,
2013-02-16 20:53:00,43.3,12.4,30.14,SW,232,0.0,0.0,28,0.00,,,0.00,meteohub,2013-02-17 04:53:00,
2013-02-16 20:58:00,43.3,12.4,30.14,SW,233,0.0,0.0,28,0.00,,,0.00,meteohub,2013-02-17 04:58:00,
2013-02-16 21:00:00,43.3,12.4,30.14,SW,232,0.0,0.0,28,0.00,,,0.00,meteohub,2013-02-17 05:00:00,
2013-02-16 21:01:00,43.3,12.4,30.14,SW,232,0.0,0.0,28,0.00,,,0.00,meteohub,2013-02-17 05:01:00,
2013-02-16 21:02:00,43.2,12.2,30.14,SW,232,0.0,0.0,28,0.00,,,0.00,meteohub,2013-02-17 05:02:00,
2013-02-16 21:07:00,43.3,12.4,30.14,SW,232,0.0,0.0,28,0.00,,,0.00,meteohub,2013-02-17 05:07:00,
2013-02-16 21:12:00,43.3,12.4,30.14,SW,231,0.0,0.0,28,0.00,,,0.00,meteohub,2013-02-17 05:12:00,
2013-02-16 21:17:00,43.2,13.1,30.14,SW,231,0.0,0.0,29,0.00,,,0.00,meteohub,2013-02-17 05:17:00,
2013-02-16 21:22:00,43.2,13.1,30.14,SW,233,0.0,0.0,29,0.00,,,0.00,meteohub,2013-02-17 05:22:00,
2013-02-16 21:27:00,43.3,13.3,30.13,SW,231,0.0,0.0,29,0.00,,,0.00,meteohub,2013-02-17 05:27:00,
2013-02-16 21:32:00,43.3,12.4,30.13,SW,231,0.0,0.0,28,0.00,,,0.00,meteohub,2013-02-17 05:32:00,
2013-02-16 21:37:00,43.3,12.4,30.13,SW,231,0.0,0.0,28,0.00,,,0.00,meteohub,2013-02-17 05:37:00,
2013-02-16 21:42:00,43.3,12.4,30.13,SW,231,0.0,0.0,28,0.00,,,0.00,meteohub,2013-02-17 05:42:00,
2013-02-16 21:47:00,43.2,13.1,30.13,SW,232,0.0,0.0,29,0.00,,,0.00,meteohub,2013-02-17 05:47:00,
2013-02-16 21:52:00,43.3,13.3,30.13,SW,231,0.0,0.0,29,0.00,,,0.00,meteohub,2013-02-17 05:52:00,
2013-02-16 21:57:00,43.3,12.4,30.13,SW,231,0.0,0.0,28,0.00,,,0.00,meteohub,2013-02-17 05:57:00,
2013-02-16 22:02:00,43.3,12.4,30.12,SW,232,0.0,0.0,28,0.00,,,0.00,meteohub,2013-02-17 06:02:00,
2013-02-16 22:07:00,43.3,12.4,30.12,SW,231,0.0,0.0,28,0.00,,,0.00,meteohub,2013-02-17 06:07:00,
2013-02-16 22:12:00,43.2,12.2,30.12,SW,232,0.0,0.0,28,0.00,,,0.00,meteohub,2013-02-17 06:12:00,
2013-02-16 22:17:00,43.2,13.1,30.12,SW,232,0.0,0.0,29,0.00,,,0.00,meteohub,2013-02-17 06:17:00,
2013-02-16 22:22:00,43.2,13.1,30.12,SW,232,0.0,0.0,29,0.00,,,0.00,meteohub,2013-02-17 06:22:00,
2013-02-16 22:27:00,43.2,12.2,30.12,SW,231,0.0,0.0,28,0.00,,,0.00,meteohub,2013-02-17 06:27:00,
2013-02-16 22:32:00,43.2,12.2,30.12,SW,232,0.0,0.0,28,0.00,,,0.00,meteohub,2013-02-17 06:32:00,
2013-02-16 22:37:00,43.0,12.9,30.12,SW,232,0.0,0.0,29,0.00,,,0.00,meteohub,2013-02-17 06:37:00,
2013-02-16 22:42:00,43.2,12.2,30.12,SW,229,0.0,0.0,28,0.00,,,0.00,meteohub,2013-02-17 06:42:00,
2013-02-16 22:47:00,43.2,12.2,30.11,SW,229,0.0,0.0,28,0.00,,,0.00,meteohub,2013-02-17 06:47:00,
2013-02-16 22:52:00,43.5,12.6,30.11,SW,229,0.0,0.0,28,0.00,,,0.00,meteohub,2013-02-17 06:52:00,
2013-02-16 22:57:00,43.7,12.7,30.11,SW,229,0.0,0.0,28,0.00,,,0.00,meteohub,2013-02-17 06:57:00,
2013-02-16 23:02:00,43.9,12.9,30.10,SW,229,0.0,0.0,28,0.00,,,0.00,meteohub,2013-02-17 07:02:00,
2013-02-16 23:07:00,43.7,12.7,30.10,SW,228,0.0,0.0,28,0.00,,,0.00,meteohub,2013-02-17 07:07:00,
2013-02-16 23:12:00,43.9,12.0,30.10,SW,228,0.0,0.0,27,0.00,,,0.00,meteohub,2013-02-17 07:12:00,
2013-02-16 23:17:00,43.9,12.0,30.10,SW,229,0.0,0.0,27,0.00,,,0.00,meteohub,2013-02-17 07:17:00,
2013-02-16 23:22:00,43.9,12.0,30.10,SW,229,0.0,0.0,27,0.00,,,0.00,meteohub,2013-02-17 07:22:00,
2013-02-16 23:27:00,43.9,12.0,30.09,SW,228,0.0,0.0,27,0.00,,,0.00,meteohub,2013-02-17 07:27:00,
2013-02-16 23:32:00,43.9,12.0,30.09,SW,229,0.0,0.0,27,0.00,,,0.00,meteohub,2013-02-17 07:32:00,
2013-02-16 23:37:00,43.9,12.0,30.09,SW,229,0.0,0.0,27,0.00,,,0.00,meteohub,2013-02-17 07:37:00,
2013-02-16 23:42:00,43.9,12.0,30.09,SW,230,0.0,0.0,27,0.00,,,0.00,meteohub,2013-02-17 07:42:00,
2013-02-16 23:47:00,43.9,12.0,30.09,SW,229,0.0,0.0,27,0.00,,,0.00,meteohub,2013-02-17 07:47:00,
2013-02-16 23:52:00,43.9,12.0,30.09,SW,229,0.0,0.0,27,0.00,,,0.00,meteohub,2013-02-17 07:52:00,
2013-02-16 23:57:00,44.1,12.2,30.09,SW,229,0.0,0.0,27,0.00,,,0.00,meteohub,2013-02-17 07:57:00,